User: anonymous   Login
Location: Unspecified
(0.0000°N, 0.0000°E)
Time: 16:01:11
(UTC+00:00)
Language:

ATS 3 - Orbit

View from above orbital plane
View from above orbital plane
View from above satellite
View from above satellite

Ground track
Ground track

The orbit data is extracted from the following two-line orbital elements,

1 03029U 67111A   23272.51858872 -.00000100  00000-0  00000-0 0  9992
2 03029   0.6144  86.5234 0018558  13.8964 349.0607  1.00271898204682
Epoch (UTC): 29 September 2023 12:26:46
Eccentricity: 0.0018558
inclination: 0.6144°
perigee height: 35708 km
apogee height: 35864 km
right ascension of ascending node: 86.5234°
argument of perigee: 13.8964°
revolutions per day: 1.00271898
mean anomaly at epoch: 349.0607°
orbit number at epoch: 20468

The dashed part of the orbit path shows where the satellite is in the earth's shadow,  

DLR